New Orleans Lakefront, LA

9:48 AM CST on December 13, 2019 (GMT -0600)
Lakefront

Weather History for KNEW - November, 2019

Change the Weather History Date:

Saturday, November 16, 2019

  Actual Average Record
Temperature  
Mean Temperature 53 °F 62 °F  
Max Temperature 63 °F 72 °F 85 °F (1978)
Min Temperature 42 °F 53 °F 33 °F (1972)
Degree Days  
Heating Degree Days 12 5  
Month to date heating degree days 120 53  
Since 1 July heating degree days 126 78  
Cooling Degree Days 0 2  
Month to date cooling degree days 19 46  
Year to date cooling degree days 3615 2955  
Moisture  
Dew Point 39 °F    
Average Humidity 58    
Maximum Humidity 86    
Minimum Humidity 30    
Precipitation  
Precipitation 0.00 in 0.16 in 2.37 in (2000)
Month to date precipitation 0.08 2.29  
Year to date precipitation 59.49 55.01  
Snow  
Snow 0.00 in - - ()
Month to date snowfall 0.0  
Since 1 July snowfall 0.0  
Since 1 September snowfall 0.0  
Snow Depth 0.00 in    
Sea Level Pressure  
Sea Level Pressure 30.13 in    
Wind  
Wind Speed 7 mph (NNW)    
Max Wind Speed 13 mph    
Max Gust Speed 17 mph    
Visibility 10 miles    
Events      
T = Trace of Precipitation, MM = Missing Value Source: NWS Daily Summary

Daily Weather History Graph

Daily Weather History Graph

Search for Another Location

Airport or City:

Astronomy

Nov. 16, 2019 Rise Set
Actual Time 6:25 AM CST 5:03 PM CST
Civil Twilight 6:00 AM CST 5:28 PM CST
Nautical Twilight 5:31 AM CST 5:57 PM CST
Astronomical Twilight 5:03 AM CST 6:26 PM CST
Moon 8:43 PM CST (11/16) 10:12 AM CST (11/16)
Length of Visible Light 11h 28m
Length of Day
10h 37m
Waning Gibbous, 82% of the Moon is Illuminated
Nov 16
Waning Gibbous
Nov 19
Last Quarter
Nov 26
New
Dec 4
First Quarter
Dec 11
Full

Hourly Weather History & Observations

Time (CST) Temp. Windchill Dew Point Humidity Pressure Visibility Wind Dir Wind Speed Gust Speed Precip Events Conditions
12:53 AM 48.0 °F - 35.1 °F 61% 30.19 in 10.0 mi North 16.1 mph - N/A   Clear
1:53 AM 46.0 °F 39.3 °F 35.1 °F 66% 30.18 in 10.0 mi North 16.1 mph - N/A   Clear
2:53 AM 46.0 °F 39.3 °F 34.0 °F 63% 30.17 in 10.0 mi North 16.1 mph - N/A   Clear
3:53 AM 45.0 °F 37.9 °F 34.0 °F 65% 30.18 in 10.0 mi North 16.1 mph - N/A   Clear
4:53 AM 44.1 °F 36.2 °F 34.0 °F 68% 30.18 in 10.0 mi North 18.4 mph - N/A   Clear
6:53 AM 43.0 °F 35.7 °F 34.0 °F 71% 30.19 in 10.0 mi North 15.0 mph - N/A   Clear
7:53 AM 45.0 °F 38.2 °F 34.0 °F 65% 30.21 in 10.0 mi North 15.0 mph - N/A   Clear
8:53 AM 46.0 °F 41.4 °F 34.0 °F 63% 30.21 in 10.0 mi North 9.2 mph - N/A   Clear
9:53 AM 48.0 °F - 36.0 °F 63% 30.20 in 10.0 mi NNW 8.1 mph - N/A   Clear
10:53 AM 50.0 °F - 37.0 °F 61% 30.17 in 9.0 mi NW 9.2 mph - N/A   Clear
11:53 AM 52.0 °F - 37.9 °F 59% 30.14 in 7.0 mi NW 9.2 mph - N/A   Clear
12:53 PM 54.0 °F - 37.9 °F 55% 30.12 in 10.0 mi WNW 12.7 mph - N/A   Clear
1:53 PM 55.0 °F - 39.0 °F 55% 30.08 in 10.0 mi West 12.7 mph - N/A   Clear
2:53 PM 55.9 °F - 41.0 °F 57% 30.06 in 10.0 mi West 12.7 mph - N/A   Clear
3:53 PM 57.0 °F - 43.0 °F 59% 30.05 in 10.0 mi West 9.2 mph - N/A   Clear
4:53 PM 55.9 °F - 45.0 °F 67% 30.05 in 10.0 mi West 6.9 mph - N/A   Clear
5:53 PM 55.0 °F - 46.9 °F 74% 30.06 in 10.0 mi WNW 5.8 mph - N/A   Clear
6:53 PM 54.0 °F - 46.9 °F 77% 30.07 in 10.0 mi North 6.9 mph - N/A   Clear
7:53 PM 55.0 °F - 42.1 °F 62% 30.08 in 10.0 mi NNE 11.5 mph - N/A   Clear
8:53 PM 54.0 °F - 43.0 °F 66% 30.09 in 10.0 mi North 11.5 mph - N/A   Clear
9:53 PM 53.1 °F - 39.9 °F 61% 30.09 in 10.0 mi North 12.7 mph - N/A   Clear
10:53 PM 53.1 °F - 39.9 °F 61% 30.09 in 10.0 mi NNE 11.5 mph - N/A   Clear
11:53 PM 52.0 °F - 39.0 °F 61% 30.08 in 10.0 mi North 11.5 mph - N/A   Clear